"Pseudo-MPEC" for X72079

Created 2021 Feb 4 13:07:08 UT using Find_Orb

Click here for an explanation of pseudo-MPECs

 
 Astrometry: 
     X72079   C2021 01 15LiCEAstrometryVKNTredacted;\8\po-9ECxlclick/bbbM8T8JD29
     X72079   C2021 01 15sd9dIh8$$*:tyhxE@Ehere=O-l4\*hN/blH$VLFHfor*K,Dy`A^FD29
     X72079   C2021 01 15b)c7jC)$%hm-w/yg0KhYU9eTlKT4dvGg8aqpA9=explanationN6D29

Station data:
(D29) Purple Mountain Observatory, XuYi Station  (N32.734366 E118.463900)
   China.  Observers H. B. Zhao, B. Li, G. Zhaori, R. Q. Hong, L. F. Hu.
   Measurers H. B. Zhao, B. Li. H. Lu, G. Zhaori. 1.04-m f/1.8 Schmidt + CCD.

Orbital elements:  X72079
   Perihelion 2021 Mar 19.888751 +/- 77.1697 TT = 21:19:48 (JD 2459293.388751)
Epoch 2021 Jan 15.0 TT = JDT 2459229.5   Earth MOID: 0.0253   Ve: 0.0657
M 292.80965126 +/- 76.455533        (J2000 ecliptic)          AutoNEOCP
n   1.05167729 +/- 0.954974         Peri.   76.50075 +/- 95.081360
a   0.95766669 +/- 0.579727         Node   112.14597 +/- 62.079485
e   0.1907889 +/- 0.22696           Incl.    6.36860 +/- 59.523630
P   0.94/342.30d           H 20.7   G  0.15   U 12.7  SR
q 0.77495445 +/- 0.530496    Q 1.14037894 +/- 15.8078
From 3 observations 2021 Jan. 15 (40.7 min); mean residual 0".24
Residuals in arcseconds: 
210115 D29  .24-  .02+    210115 D29  .51+  .02-    210115 D29  .18-  .04+    

Ephemerides (geocentric):
Date (UTC) HH   RA              Dec         delta   r     elong  mag " sig PA
---- -- -- --  -------------   -----------  ------ ------ -----  --- ---- ---
2021 02 04 13  00 02 32.019   +06 02 03.56  .22281 .85153  47.6 22?? 258'  87
2021 02 04 14  00 02 27.225   +06 03 04.51  .22274 .85140  47.5 22?? 260'  87
2021 02 04 15  00 02 22.417   +06 04 05.40  .22267 .85127  47.5 22?? 261'  87
2021 02 04 16  00 02 17.594   +06 05 06.23  .22260 .85114  47.4 22?? 263'  87
2021 02 04 17  00 02 12.756   +06 06 07.00  .22253 .85102  47.4 22?? 264'  87
2021 02 04 18  00 02 07.903   +06 07 07.71  .22246 .85089  47.3 22?? 266'  87
2021 02 04 19  00 02 03.035   +06 08 08.36  .22240 .85076  47.3 22?? 267'  87
2021 02 04 20  00 01 58.152   +06 09 08.95  .22233 .85063  47.2 22?? 269'  87
2021 02 04 21  00 01 53.254   +06 10 09.48  .22226 .85051  47.2 22?? 270'  87
2021 02 04 22  00 01 48.341   +06 11 09.95  .22219 .85038  47.1 22?? 272'  86
2021 02 04 23  00 01 43.413   +06 12 10.35  .22212 .85025  47.1 22?? 273'  86
2021 02 05 00  00 01 38.469   +06 13 10.70  .22205 .85012  47.0 22?? 275'  86
2021 02 05 01  00 01 33.511   +06 14 10.98  .22198 .85000  46.9 22?? 276'  86
2021 02 05 02  00 01 28.538   +06 15 11.20  .22192 .84987  46.9 22?? 278'  86
2021 02 05 03  00 01 23.550   +06 16 11.36  .22185 .84974  46.8 22?? 279'  86
2021 02 05 04  00 01 18.546   +06 17 11.46  .22178 .84962  46.8 22?? 281'  86
2021 02 05 05  00 01 13.528   +06 18 11.49  .22171 .84949  46.7 22?? 283'  86
2021 02 05 06  00 01 08.494   +06 19 11.46  .22164 .84936  46.7 22?? 284'  86
2021 02 05 07  00 01 03.446   +06 20 11.37  .22157 .84923  46.6 22?? 286'  86
2021 02 05 08  00 00 58.382   +06 21 11.21  .22151 .84911  46.6 22?? 287'  86
2021 02 05 09  00 00 53.303   +06 22 10.99  .22144 .84898  46.5 22?? 289'  86
2021 02 05 10  00 00 48.209   +06 23 10.71  .22137 .84885  46.5 22?? 291'  86
2021 02 05 11  00 00 43.099   +06 24 10.36  .22130 .84873  46.4 22?? 293'  85
2021 02 05 12  00 00 37.975   +06 25 09.94  .22124 .84860  46.4 22?? 294'  85
2021 02 05 13  00 00 32.835   +06 26 09.47  .22117 .84847  46.3 22?? 296'  85
2021 02 05 14  00 00 27.680   +06 27 08.92  .22110 .84835  46.3 22?? 298'  85
2021 02 05 15  00 00 22.510   +06 28 08.31  .22103 .84822  46.2 22?? 299'  85
2021 02 05 16  00 00 17.324   +06 29 07.64  .22097 .84810  46.2 22?? 301'  85
2021 02 05 17  00 00 12.123   +06 30 06.90  .22090 .84797  46.1 22?? 303'  85
2021 02 05 18  00 00 06.907   +06 31 06.09  .22083 .84784  46.1 22?? 305'  85
2021 02 05 19  00 00 01.676   +06 32 05.22  .22076 .84772  46.0 22?? 307'  85
2021 02 05 20  23 59 56.430   +06 33 04.28  .22070 .84759  46.0 22?? 308'  85
2021 02 05 21  23 59 51.168   +06 34 03.28  .22063 .84746  45.9 22?? 310'  85
2021 02 05 22  23 59 45.891   +06 35 02.20  .22056 .84734  45.8 22?? 312'  84
2021 02 05 23  23 59 40.598   +06 36 01.06  .22050 .84721  45.8 22?? 314'  84
2021 02 06 00  23 59 35.290   +06 36 59.85  .22043 .84709  45.7 22?? 316'  84
2021 02 06 01  23 59 29.967   +06 37 58.58  .22036 .84696  45.7 22?? 318'  84
2021 02 06 02  23 59 24.629   +06 38 57.23  .22030 .84684  45.6 22?? 320'  84
2021 02 06 03  23 59 19.275   +06 39 55.82  .22023 .84671  45.6 22?? 322'  84
2021 02 06 04  23 59 13.905   +06 40 54.34  .22016 .84658  45.5 22?? 324'  84
2021 02 06 05  23 59 08.521   +06 41 52.79  .22010 .84646  45.5 22?? 326'  84
2021 02 06 06  23 59 03.121   +06 42 51.16  .22003 .84633  45.4 22?? 328'  84
2021 02 06 07  23 58 57.705   +06 43 49.47  .21996 .84621  45.4 22?? 330'  84
2021 02 06 08  23 58 52.274   +06 44 47.71  .21990 .84608  45.3 22?? 332'  83
2021 02 06 09  23 58 46.828   +06 45 45.88  .21983 .84596  45.3 22?? 334'  83
2021 02 06 10  23 58 41.366   +06 46 43.98  .21977 .84583  45.2 22?? 336'  83
2021 02 06 11  23 58 35.889   +06 47 42.01  .21970 .84571  45.2 22?? 338'  83
2021 02 06 12  23 58 30.396   +06 48 39.97  .21963 .84558  45.1 22?? 340'  83